| time (UTC) | temp F | wind direction | speed knots | gust knots | rain 1hr in | rain 24hr in | rain mn in | humidity % | barometer mb |
| 20260506002010 | 55 | 24 | 0.0 | 0.0 | 0.00 | 0.21 | 0.07 | 88 | 1017.5 |
| 20260506001010 | 55 | 24 | 0.0 | 0.0 | 0.00 | 0.21 | 0.07 | 88 | 1017.4 |
| 20260506000011 | 55 | 24 | 0.0 | 5.2 | 0.00 | 0.21 | 0.07 | 87 | 1017.3 |
| 20260505235010 | 55 | 342 | 0.0 | 0.0 | 0.00 | 0.21 | 0.07 | 87 | 1017.3 |
| 20260505234010 | 55 | 342 | 0.0 | 2.6 | 0.00 | 0.21 | 0.07 | 88 | 1017.2 |
| 20260505233009 | 54 | 337 | 0.0 | 2.6 | 0.00 | 0.21 | 0.07 | 89 | 1017.2 |
| 20260505232010 | 54 | 21 | 0.0 | 5.2 | 0.00 | 0.21 | 0.07 | 89 | 1017.1 |
| 20260505231010 | 54 | 25 | 0.0 | 6.1 | 0.00 | 0.21 | 0.07 | 88 | 1017.2 |
| 20260505230010 | 55 | 334 | 0.0 | 5.2 | 0.00 | 0.21 | 0.07 | 87 | 1017.2 |
| 20260505225009 | 55 | 328 | 0.0 | 4.3 | 0.00 | 0.21 | 0.07 | 87 | 1017.2 |
| 20260505224009 | 54 | 304 | 0.0 | 0.0 | 0.00 | 0.21 | 0.07 | 88 | 1017.1 |
| 20260505222010 | 54 | 13 | 0.0 | 0.0 | 0.00 | 0.21 | 0.07 | 87 | 1017.4 |
| 20260505220009 | 54 | 11 | 0.9 | 4.3 | 0.00 | 0.21 | 0.07 | 88 | 1017.2 |
| 20260505215018 | 54 | 0 | 0.0 | 4.3 | 0.00 | 0.21 | 0.07 | 90 | 1017.3 |
| 20260505214010 | 54 | 349 | 0.9 | 5.2 | 0.00 | 0.21 | 0.07 | 90 | 1017.3 |
| 20260505213009 | 53 | 20 | 0.0 | 2.6 | 0.00 | 0.21 | 0.07 | 91 | 1017.3 |
| 20260505212010 | 53 | 312 | 0.0 | 5.2 | 0.00 | 0.21 | 0.07 | 91 | 1017.4 |
| 20260505211011 | 53 | 335 | 2.6 | 5.2 | 0.00 | 0.21 | 0.07 | 91 | 1017.4 |
| 20260505210009 | 53 | 357 | 1.7 | 5.2 | 0.00 | 0.21 | 0.07 | 91 | 1017.3 |
| 20260505205010 | 53 | 8 | 0.0 | 0.0 | 0.00 | 0.21 | 0.07 | 92 | 1017.3 |
| 20260505204009 | 53 | 8 | 2.6 | 6.1 | 0.00 | 0.21 | 0.07 | 91 | 1017.4 |
| 20260505202010 | 53 | 324 | 0.9 | 5.2 | 0.00 | 0.21 | 0.07 | 91 | 1017.2 |
| 20260505201010 | 53 | 265 | 1.7 | 5.2 | 0.00 | 0.21 | 0.07 | 92 | 1017.3 |
| 20260505200014 | 53 | 10 | 1.7 | 6.1 | 0.00 | 0.21 | 0.07 | 92 | 1017.3 |
| 20260505195009 | 53 | 16 | 1.7 | 6.1 | 0.00 | 0.21 | 0.07 | 92 | 1017.4 |
| 20260505194010 | 53 | 8 | 2.6 | 7.0 | 0.00 | 0.21 | 0.07 | 91 | 1017.4 |
| 20260505192009 | 53 | 30 | 0.9 | 7.8 | 0.00 | 0.21 | 0.07 | 91 | 1017.3 |
| 20260505191009 | 54 | 344 | 2.6 | 6.1 | 0.00 | 0.21 | 0.07 | 88 | 1017.3 |
| 20260505190009 | 54 | 52 | 0.0 | 5.2 | 0.00 | 0.21 | 0.07 | 91 | 1017.1 |
| 20260505185009 | 53 | 334 | 0.0 | 5.2 | 0.00 | 0.21 | 0.07 | 93 | 1017.0 |
| 20260505184010 | 52 | 335 | 0.0 | 4.3 | 0.00 | 0.21 | 0.07 | 96 | 1017.0 |
| 20260505183009 | 52 | 318 | 1.7 | 5.2 | 0.00 | 0.21 | 0.07 | 96 | 1017.0 |
| 20260505181010 | 53 | 294 | 0.0 | 0.0 | 0.00 | 0.21 | 0.07 | 93 | 1016.9 |
| 20260505175009 | 53 | 294 | 0.0 | 2.6 | 0.00 | 0.21 | 0.07 | 93 | 1016.6 |
| 20260505174009 | 53 | 291 | 0.9 | 5.2 | 0.00 | 0.21 | 0.07 | 96 | 1016.6 |
| 20260505173009 | 52 | 337 | 0.9 | 7.8 | 0.00 | 0.21 | 0.07 | 100 | 1016.2 |
| 20260505172010 | 51 | 0 | 0.0 | 2.6 | 0.00 | 0.21 | 0.07 | 100 | 1016.4 |
| 20260505171009 | 51 | 7 | 0.0 | 0.0 | 0.00 | 0.21 | 0.07 | 100 | 1016.1 |
| 20260505170009 | 51 | 3 | 1.7 | 7.0 | 0.00 | 0.21 | 0.07 | 100 | 1016.3 |
| 20260505165010 | 50 | 347 | 0.0 | 5.2 | 0.00 | 0.21 | 0.07 | 100 | 1016.0 |
| 20260505163009 | 50 | 349 | 0.0 | 1.7 | 0.00 | 0.21 | 0.07 | 100 | 1016.1 |
| 20260505162009 | 50 | 1 | 1.7 | 5.2 | 0.01 | 0.21 | 0.07 | 100 | 1016.1 |
| 20260505161010 | 50 | 0 | 0.0 | 0.0 | 0.01 | 0.21 | 0.07 | 100 | 1016.1 |
| 20260505153009 | 50 | 0 | 0.0 | 0.0 | 0.01 | 0.21 | 0.07 | 100 | 1015.8 |
| 20260505152009 | 50 | 0 | 0.0 | 0.0 | 0.00 | 0.20 | 0.06 | 100 | 1015.7 |
| 20260505151009 | 49 | 0 | 0.0 | 0.0 | 0.00 | 0.20 | 0.06 | 100 | 1015.7 |
| 20260505124009 | 48 | 0 | 0.0 | 0.0 | 0.00 | 0.24 | 0.06 | 100 | 1015.0 |
| 20260505123009 | 48 | 0 | 0.0 | 0.0 | 0.00 | 0.26 | 0.06 | 100 | 1014.9 |
| 20260505122010 | 48 | 0 | 0.0 | 0.0 | 0.00 | 0.28 | 0.06 | 100 | 1014.9 |
| 20260505121010 | 48 | 0 | 0.0 | 0.0 | 0.00 | 0.28 | 0.06 | 100 | 1014.8 |
| 20260505120010 | 48 | 0 | 0.0 | 0.0 | 0.00 | 0.29 | 0.06 | 100 | 1014.8 |
| 20260505115009 | 48 | 0 | 0.0 | 0.0 | 0.00 | 0.31 | 0.06 | 100 | 1014.8 |
| 20260505114009 | 48 | 0 | 0.0 | 0.0 | 0.00 | 0.32 | 0.06 | 100 | 1014.9 |
| 20260505113010 | 48 | 0 | 0.0 | 0.0 | 0.00 | 0.32 | 0.06 | 100 | 1014.9 |
| 20260505112009 | 48 | 0 | 0.0 | 0.0 | 0.00 | 0.32 | 0.06 | 100 | 1014.9 |
| 20260505111009 | 48 | 0 | 0.0 | 0.0 | 0.00 | 0.32 | 0.06 | 100 | 1015.0 |
| 20260505101009 | 48 | 0 | 0.0 | 0.0 | 0.02 | 0.32 | 0.06 | 100 | 1015.0 |
| 20260505100010 | 48 | 0 | 0.0 | 0.0 | 0.01 | 0.31 | 0.05 | 100 | 1015.1 |
| 20260505095010 | 48 | 0 | 0.0 | 0.0 | 0.01 | 0.31 | 0.05 | 100 | 1015.2 |
| 20260505093009 | 48 | 0 | 0.0 | 0.0 | 0.01 | 0.31 | 0.05 | 100 | 1015.2 |
| 20260505092010 | 48 | 0 | 0.0 | 0.0 | 0.01 | 0.30 | 0.04 | 100 | 1015.3 |
| 20260505091010 | 48 | 0 | 0.0 | 0.0 | 0.02 | 0.30 | 0.04 | 100 | 1015.5 |
| 20260505090009 | 48 | 0 | 0.0 | 0.0 | 0.02 | 0.30 | 0.04 | 100 | 1015.3 |
| 20260505085009 | 48 | 0 | 0.0 | 0.0 | 0.03 | 0.30 | 0.04 | 100 | 1015.5 |
| 20260505084010 | 48 | 0 | 0.0 | 0.0 | 0.03 | 0.30 | 0.04 | 100 | 1015.6 |
| 20260505083010 | 48 | 0 | 0.0 | 0.0 | 0.04 | 0.30 | 0.04 | 100 | 1015.6 |
| 20260505082010 | 49 | 0 | 0.0 | 0.0 | 0.03 | 0.29 | 0.03 | 100 | 1015.6 |
| 20260505081009 | 49 | 0 | 0.0 | 0.0 | 0.02 | 0.28 | 0.02 | 100 | 1015.6 |
| 20260505075010 | 49 | 0 | 0.0 | 0.0 | 0.01 | 0.27 | 0.01 | 100 | 1015.8 |
| 20260505074010 | 49 | 0 | 0.0 | 0.0 | 0.01 | 0.27 | 0.01 | 100 | 1015.8 |
| 20260505073009 | 49 | 0 | 0.0 | 0.0 | 0.00 | 0.26 | 0.00 | 100 | 1015.7 |
| 20260505072009 | 49 | 0 | 0.0 | 0.0 | 0.00 | 0.26 | 0.00 | 100 | 1015.8 |
| 20260505071009 | 49 | 0 | 0.0 | 0.0 | 0.01 | 0.26 | 0.00 | 100 | 1015.8 |
| 20260505070009 | 49 | 0 | 0.0 | 0.0 | 0.01 | 0.26 | 0.00 | 100 | 1015.8 |
| 20260505065009 | 49 | 0 | 0.0 | 0.0 | 0.01 | 0.26 | 0.26 | 100 | 1015.8 |
| 20260505063009 | 50 | 0 | 0.0 | 0.0 | 0.01 | 0.26 | 0.26 | 100 | 1015.8 |
| 20260505062009 | 50 | 0 | 0.0 | 0.0 | 0.01 | 0.26 | 0.26 | 100 | 1015.9 |
| 20260505061009 | 50 | 0 | 0.0 | 0.0 | 0.00 | 0.25 | 0.25 | 100 | 1015.9 |
| 20260505060009 | 50 | 0 | 0.0 | 0.0 | 0.00 | 0.25 | 0.25 | 100 | 1015.9 |
| 20260505054009 | 50 | 0 | 0.0 | 0.0 | 0.00 | 0.25 | 0.25 | 100 | 1016.0 |
| 20260505053009 | 50 | 0 | 0.0 | 0.0 | 0.00 | 0.25 | 0.25 | 100 | 1016.0 |
| 20260505041010 | 50 | 0 | 0.0 | 0.0 | 0.00 | 0.25 | 0.25 | 100 | 1016.0 |
| 20260505040009 | 50 | 0 | 0.0 | 0.0 | 0.00 | 0.25 | 0.25 | 100 | 1016.0 |
| 20260505035009 | 51 | 0 | 0.0 | 0.0 | 0.00 | 0.25 | 0.25 | 100 | 1015.9 |
| 20260505034010 | 51 | 0 | 0.0 | 0.0 | 0.00 | 0.25 | 0.25 | 100 | 1015.7 |
| 20260505033009 | 51 | 0 | 0.0 | 0.0 | 0.00 | 0.25 | 0.25 | 100 | 1015.6 |
| 20260505031010 | 51 | 0 | 0.0 | 0.0 | 0.13 | 0.25 | 0.25 | 99 | 1015.6 |
| 20260505030009 | 52 | 0 | 0.0 | 0.0 | 0.13 | 0.25 | 0.25 | 100 | 1015.5 |
| 20260505025010 | 52 | 0 | 0.0 | 0.0 | 0.13 | 0.25 | 0.25 | 100 | 1015.6 |
| 20260505024011 | 52 | 0 | 0.0 | 0.0 | 0.13 | 0.25 | 0.25 | 100 | 1015.5 |
| 20260505022046 | 52 | 1 | 0.0 | 0.0 | 0.13 | 0.25 | 0.25 | 98 | 1015.8 |
| 20260505021012 | 52 | 1 | 0.0 | 0.0 | 0.00 | 0.12 | 0.12 | 97 | 1015.7 |
| 20260505020012 | 52 | 1 | 0.0 | 0.0 | 0.00 | 0.12 | 0.12 | 96 | 1015.7 |
| 20260505015011 | 52 | 1 | 0.0 | 0.0 | 0.00 | 0.12 | 0.12 | 95 | 1015.8 |
| 20260505013009 | 53 | 1 | 0.0 | 0.0 | 0.00 | 0.12 | 0.12 | 92 | 1015.9 |
| 20260505012011 | 53 | 357 | 0.9 | 2.6 | 0.00 | 0.12 | 0.12 | 91 | 1016.1 |
| 20260505011017 | 53 | 328 | 0.0 | 0.0 | 0.00 | 0.12 | 0.12 | 91 | 1016.1 |
| 20260505010014 | 53 | 328 | 0.0 | 0.0 | 0.00 | 0.12 | 0.12 | 91 | 1016.1 |
| 20260505005011 | 53 | 328 | 0.0 | 0.0 | 0.00 | 0.12 | 0.12 | 90 | 1016.1 |
| 20260505004014 | 53 | 328 | 0.0 | 0.0 | 0.00 | 0.12 | 0.12 | 91 | 1016.1 |